Location: Emporia
(38.4040°N, 96.1810°W)
Time: 06:40:17
(UTC-06:00)

Amateur Radio Satellites - All Passes

Search period start: 03 March 2015 06:10
Search period end: 04 March 2015 06:10
Location: Emporia, 38.4040°N, 96.1810°W

Satellite Date Start Highest point End Downlink Frequencies (MHz)
Time Altitude Azimuth
AO-7 03 Mar 06:15:04 06:22:07 31° 300° (WNW) 06:28:58 29.400- 29.500
PCSat 03 Mar 06:22:34 06:28:01 80° 245° (WSW) 06:33:26 145.827
STRAND 1 03 Mar 06:24:26 06:29:32 72° 75° (ENE) 06:34:42 437.568
AIST 1 03 Mar 06:33:28 06:36:42 21° 89° (E) 06:40:06
PRISM 03 Mar 06:41:13 06:45:05 37° 262° (W) 06:48:58 437.425
SRMSAT 03 Mar 07:03:16 07:04:10 10° 189° (S) 07:05:00 437.500
Cubesat XI-IV 03 Mar 07:38:23 07:43:15 35° 291° (WNW) 07:48:01 437.490
CUTE-I 03 Mar 07:47:24 07:52:02 30° 292° (WNW) 07:56:34 437.470
RS-15 03 Mar 07:53:01 08:04:09 56° 50° (NE) 08:15:51 29.354- 29.394
BRITE-PL 03 Mar 08:06:01 08:09:16 20° 91° (E) 08:12:31 437.365/2234.400
ISS 03 Mar 08:06:36 08:09:14 24° 133° (SE) 08:11:56 145.825
STRAND 1 03 Mar 08:07:12 08:09:22 12° 272° (W) 08:11:13 437.568
GOMX 1 03 Mar 08:08:56 08:10:55 13° 89° (E) 08:13:06 467.674
AIST 1 03 Mar 08:10:28 08:14:15 28° 285° (WNW) 08:18:02
CUTE 1.7 + AOD 2 03 Mar 08:12:41 08:14:52 14° 90° (E) 08:17:15 437.475
O/OREOS (USA 219) 03 Mar 08:14:03 08:15:57 13° 100° (E) 08:18:08 437.305
GONETS M04 03 Mar 08:20:44 08:28:28 35° 71° (ENE) 08:36:22
DOVE 4 03 Mar 08:40:08 08:43:15 20° 93° (E) 08:46:25 437.250
CINEMA 3 03 Mar 08:45:25 08:46:38 11° 89° (E) 08:48:07 145.822/145.860
Oscar 11 03 Mar 08:52:13 08:53:04 11° 89° (E) 08:54:13 145.826/435.025
AAUSAT CUBESAT 2 03 Mar 08:53:23 08:56:48 24° 94° (E) 09:00:18 437.432
HO-68 03 Mar 08:53:28 09:00:24 50° 100° (E) 09:07:22 435.675
COMPASS 1 03 Mar 08:56:12 08:59:56 31° 96° (E) 09:03:42 437.405
UNISAT 6 03 Mar 09:06:44 09:08:58 14° 67° (ENE) 09:11:23 437.425
QB50P1 03 Mar 09:20:37 09:21:20 10° 65° (ENE) 09:22:18 145.935-145.965
QB50P2 03 Mar 09:23:52 09:25:21 12° 66° (ENE) 09:27:04 145.880/145.840
SEEDS 03 Mar 09:24:07 09:28:22 83° 105° (ESE) 09:32:36 437.485
CANX-2 03 Mar 09:28:22 09:32:36 66° 284° (WNW) 09:36:49 2200.000
TIGRISAT 03 Mar 09:30:06 09:33:38 25° 70° (ENE) 09:37:13 435.000
FUNcube-1 03 Mar 09:36:35 09:39:09 16° 92° (E) 09:41:54 145.935
DUCHIFAT 1 03 Mar 09:37:12 09:39:48 16° 68° (ENE) 09:42:32 145.980
ZACube-1 03 Mar 09:37:56 09:40:40 17° 92° (E) 09:43:32 437.345
ISS 03 Mar 09:42:38 09:45:35 32° 328° (NNW) 09:48:32 145.825
ANTELSAT 03 Mar 09:43:32 09:47:32 35° 72° (ENE) 09:51:31 437.575/2403.000
BRITE-PL 03 Mar 09:43:57 09:47:58 31° 290° (WNW) 09:51:42 437.365/2234.400
UKube-1 03 Mar 09:44:29 09:47:30 19° 93° (E) 09:50:38 .
GOMX 1 03 Mar 09:45:19 09:49:29 44° 287° (WNW) 09:53:26 467.674
CUTE 1.7 + AOD 2 03 Mar 09:47:01 09:51:05 44° 286° (WNW) 09:55:07 437.475
O/OREOS (USA 219) 03 Mar 09:50:29 09:54:57 55° 294° (WNW) 09:59:28 437.305
POLYITAN 1 03 Mar 09:57:02 10:00:40 28° 71° (ENE) 10:04:21 437.675
DELFI C3 03 Mar 09:57:03 10:01:01 49° 99° (E) 10:05:00 145.870
POPSAT HIP 1 03 Mar 09:57:15 10:00:51 27° 71° (ENE) 10:04:31 437.405
UWE-3 03 Mar 09:57:39 10:01:30 36° 97° (E) 10:05:23 435.000/436.395/437.385
RS-15 03 Mar 10:05:47 10:16:29 44° 250° (WSW) 10:27:23 29.354- 29.394
SO-50 03 Mar 10:06:59 10:11:35 37° 52° (NE) 10:16:10 436.795
GONETS M04 03 Mar 10:17:15 10:25:34 49° 270° (W) 10:33:49
DOVE 4 03 Mar 10:17:26 10:21:08 28° 289° (WNW) 10:24:40 437.250
NANOSAT C BR1 03 Mar 10:19:36 10:23:43 49° 74° (ENE) 10:27:52 145.865
CINEMA 3 03 Mar 10:20:15 10:24:17 49° 286° (WNW) 10:28:17 145.822/145.860
Oscar 11 03 Mar 10:25:27 10:29:44 59° 285° (WNW) 10:33:59 145.826/435.025
AAUSAT CUBESAT 2 03 Mar 10:28:57 10:32:25 25° 289° (WNW) 10:35:48 437.432
COMPASS 1 03 Mar 10:32:20 10:35:30 20° 291° (WNW) 10:38:32 437.405
CUBEBUG 2 03 Mar 10:36:23 10:40:30 60° 285° (WNW) 10:44:35 437.445
UNISAT 6 03 Mar 10:41:09 10:45:27 49° 261° (W) 10:49:40 437.425
HO-68 03 Mar 10:41:44 10:47:52 31° 297° (WNW) 10:53:51 435.675
DX 1 03 Mar 10:50:49 10:55:11 71° 285° (WNW) 10:59:30 434.975-435.025
QB50P1 03 Mar 10:52:27 10:56:44 67° 258° (WSW) 11:01:01 145.935-145.965
QB50P2 03 Mar 10:56:36 11:00:50 59° 260° (W) 11:05:05 145.880/145.840
AISAT 03 Mar 10:57:12 11:01:33 53° 100° (E) 11:05:52 437.250
CUBEBUG 1 03 Mar 10:58:59 11:02:27 23° 94° (E) 11:05:58 437.445
BUGSAT 1 03 Mar 10:59:12 11:03:29 77° 259° (W) 11:07:46 437.445
50 SAT 03 Mar 11:00:50 11:04:44 58° 100° (E) 11:08:39 437.505
VELOX 1 03 Mar 11:06:20 11:10:46 66° 101° (ESE) 11:15:10 145.980
TIGRISAT 03 Mar 11:06:34 11:10:21 27° 265° (W) 11:14:00 435.000
HUMSAT D 03 Mar 11:10:54 11:15:00 71° 284° (WNW) 11:19:06 437.325/437.525
DUCHIFAT 1 03 Mar 11:11:18 11:15:22 41° 262° (W) 11:19:25 145.980
FUNcube-1 03 Mar 11:11:53 11:15:41 35° 287° (WNW) 11:19:28 145.935
ZACube-1 03 Mar 11:13:25 11:17:12 33° 288° (WNW) 11:20:56 437.345
UKube-1 03 Mar 11:19:50 11:23:48 34° 289° (WNW) 11:27:42 .
ANTELSAT 03 Mar 11:21:21 11:24:29 18° 267° (W) 11:27:27 437.575/2403.000
ESTCUBE 1 03 Mar 11:24:29 11:28:55 50° 99° (E) 11:33:20 437.505/2401.250
DANDE 03 Mar 11:29:08 11:31:47 87° 79° (E) 11:34:25 436.750
SPROUT 03 Mar 11:30:06 11:31:28 12° 89° (E) 11:33:04 437.525
TISAT 1 03 Mar 11:32:20 11:32:49 10° 89° (E) 11:33:36 437.305
POLYITAN 1 03 Mar 11:33:07 11:36:36 23° 266° (W) 11:40:00 437.675
POPSAT HIP 1 03 Mar 11:33:14 11:36:45 23° 266° (W) 11:40:09 437.405
DELFI C3 03 Mar 11:33:57 11:35:51 13° 293° (WNW) 11:37:34 145.870
UWE-3 03 Mar 11:35:06 11:37:49 17° 292° (WNW) 11:40:24 435.000/436.395/437.385
SO-50 03 Mar 11:47:52 11:52:01 26° 247° (WSW) 11:56:01 436.795
CUSAT 1 03 Mar 11:55:10 11:57:11 19° 265° (W) 11:59:13 437.405
NANOSAT C BR1 03 Mar 11:57:49 11:59:55 13° 270° (W) 12:01:48 145.865
Oscar 19 03 Mar 12:06:49 12:10:41 23° 67° (ENE) 12:14:42 437.125/150
CUBEBUG 1 03 Mar 12:35:00 12:38:51 29° 289° (WNW) 12:42:36 437.445
AISAT 03 Mar 12:35:24 12:37:46 14° 295° (WNW) 12:39:55 437.250
50 SAT 03 Mar 12:38:52 12:39:19 10° 294° (WNW) 12:39:33 437.505
VELOX 1 03 Mar 12:45:17 12:46:51 11° 296° (WNW) 12:48:11 145.980
ESTCUBE 1 03 Mar 13:02:41 13:05:26 16° 294° (WNW) 13:08:00 437.505/2401.250
SPROUT 03 Mar 13:03:46 13:07:59 54° 286° (WNW) 13:12:09 437.525
SWISSCUBE 03 Mar 13:04:20 13:07:50 21° 93° (E) 13:11:29 437.505
TISAT 1 03 Mar 13:04:56 13:09:06 58° 285° (WNW) 13:13:13 437.305
BEESAT 03 Mar 13:12:37 13:16:22 23° 94° (E) 13:20:13 436.000
Gurwin Techsat 1B 03 Mar 13:22:19 13:26:50 30° 69° (ENE) 13:31:28 435.225
AO-7 03 Mar 13:31:24 13:35:17 15° 51° (NE) 13:39:37 29.400- 29.500
ITUPSAT 1 03 Mar 13:39:54 13:44:30 43° 98° (E) 13:49:05 437.325
ITAMSAT 1 03 Mar 13:44:38 13:49:46 66° 74° (ENE) 13:54:59 435.822/435.867
Oscar 19 03 Mar 13:44:59 13:49:50 41° 262° (W) 13:54:39 437.125/150
HORYU 2 03 Mar 14:11:58 14:15:12 21° 68° (ENE) 14:18:35 437.375
ISS 03 Mar 14:35:13 14:37:53 23° 28° (NNE) 14:40:32 145.825
SWISSCUBE 03 Mar 14:41:24 14:45:53 39° 289° (WNW) 14:50:18 437.505
KKS-1 03 Mar 14:47:08 14:51:21 42° 98° (E) 14:55:33 437.445
BEESAT 03 Mar 14:49:57 14:54:19 34° 290° (WNW) 14:58:37 436.000
STARS 03 Mar 14:51:45 14:55:36 30° 96° (E) 14:59:28 437.465
Gurwin Techsat 1B 03 Mar 15:02:01 15:06:46 32° 264° (W) 15:11:28 435.225
YUBILEINY 03 Mar 15:12:09 15:19:02 28° 84° (E) 15:26:14 435.215
AO-7 03 Mar 15:18:31 15:26:46 69° 69° (ENE) 15:35:03 29.400- 29.500
ITUPSAT 1 03 Mar 15:18:39 15:22:07 19° 294° (WNW) 15:25:26 437.325
ITAMSAT 1 03 Mar 15:27:06 15:29:51 14° 271° (W) 15:32:18 435.822/435.867
HORYU 2 03 Mar 15:47:41 15:51:42 33° 263° (W) 15:55:43 437.375
VERMONT LUNAR 03 Mar 15:49:11 15:50:08 11° 144° (SE) 15:51:13 437.305
JAS-2 03 Mar 16:00:08 16:05:33 74° 75° (ENE) 16:11:41 435.910
MOZHAYETS 4 03 Mar 16:06:10 16:08:40 15° 90° (E) 16:11:23
ISS 03 Mar 16:11:20 16:14:24 40° 224° (SW) 16:17:28 145.825
KKS-1 03 Mar 16:24:47 16:27:42 17° 293° (WNW) 16:30:28 437.445
STARS 03 Mar 16:28:29 16:31:57 23° 291° (WNW) 16:35:18 437.465
BEESAT 3 03 Mar 16:34:47 16:38:19 30° 114° (ESE) 16:41:58 437.485
M-CUBED/EXP-1 PRIME 03 Mar 16:50:35 16:54:50 55° 105° (ESE) 16:59:24 437.505
AUBIESAT-1 03 Mar 16:51:46 16:56:00 51° 105° (ESE) 17:00:31 437.475
BEESAT 2 03 Mar 17:00:55 17:04:53 50° 117° (ESE) 17:08:55 435.950
AIST 2 03 Mar 17:04:45 17:07:49 20° 112° (ESE) 17:11:03 435.215
YUBILEINY 03 Mar 17:06:47 17:15:23 58° 282° (WNW) 17:24:01 435.215
AO-7 03 Mar 17:13:41 17:20:17 24° 267° (W) 17:26:34 29.400- 29.500
Cubesat XI-IV 03 Mar 17:19:01 17:23:57 40° 70° (ENE) 17:28:59 437.490
VERMONT LUNAR 03 Mar 17:24:11 17:27:35 51° 158° (SSE) 17:30:59 437.305
CUTE-I 03 Mar 17:27:31 17:32:36 47° 72° (ENE) 17:37:47 437.470
PHONESAT 2.4 03 Mar 17:35:11 17:38:28 33° 152° (SSE) 17:41:48 2401.200-2431.200
MOZHAYETS 4 03 Mar 17:41:46 17:46:15 50° 286° (WNW) 17:50:44
JAS-2 03 Mar 17:49:08 17:51:43 13° 276° (W) 17:54:00 435.910
CUBESAT XI-V 03 Mar 18:07:06 18:10:41 22° 93° (E) 18:14:21 437.345
BEESAT 3 03 Mar 18:13:01 18:16:26 24° 311° (NW) 18:19:50 437.485
AIST 1 03 Mar 18:18:32 18:22:54 59° 80° (E) 18:27:13
O/OREOS (USA 219) 03 Mar 18:23:25 18:26:52 21° 58° (ENE) 18:30:25 437.305
PRISM 03 Mar 18:25:20 18:29:09 32° 97° (E) 18:32:58 437.425
M-CUBED/EXP-1 PRIME 03 Mar 18:26:58 18:29:28 15° 297° (WNW) 18:31:52 437.505
AUBIESAT-1 03 Mar 18:27:52 18:30:35 16° 297° (WNW) 18:33:13 437.475
STRAND 1 03 Mar 18:37:06 18:41:23 27° 95° (E) 18:45:46 437.568
BEESAT 2 03 Mar 18:40:39 18:43:23 17° 315° (NW) 18:46:03 435.950
AIST 2 03 Mar 18:42:16 18:46:14 36° 307° (NW) 18:50:13 435.215
Cubesat XI-IV 03 Mar 18:59:51 19:04:13 24° 266° (W) 19:08:29 437.490
VERMONT LUNAR 03 Mar 19:02:01 19:05:29 63° 352° (N) 19:08:58 437.305
CUTE-I 03 Mar 19:08:59 19:12:59 20° 268° (W) 19:16:50 437.470
PHONESAT 2.4 03 Mar 19:13:08 19:16:47 78° 348° (NNW) 19:20:26 2401.200-2431.200
BRITE-PL 03 Mar 19:14:09 19:18:45 27° 70° (ENE) 19:23:18 437.365/2234.400
GOMX 1 03 Mar 19:14:47 19:18:12 18° 67° (ENE) 19:21:42 467.674
HO-68 03 Mar 19:20:54 19:27:00 33° 64° (ENE) 19:33:16 435.675
PCSat 03 Mar 19:21:52 19:24:58 16° 106° (ESE) 19:28:20 145.827
DOVE 4 03 Mar 19:43:54 19:47:48 23° 69° (ENE) 19:51:41 437.250
CUBESAT XI-V 03 Mar 19:43:57 19:48:14 35° 289° (WNW) 19:52:27 437.345
AAUSAT CUBESAT 2 03 Mar 19:44:19 19:46:33 15° 67° (ENE) 19:48:57 437.432
CINEMA 3 03 Mar 19:46:16 19:47:51 12° 66° (ENE) 19:49:41 145.822/145.860
COMPASS 1 03 Mar 19:47:10 19:49:57 18° 69° (ENE) 19:52:53 437.405
AIST 1 03 Mar 19:59:10 20:00:05 10° 275° (W) 20:00:42
PRISM 03 Mar 20:01:20 20:04:28 20° 292° (WNW) 20:07:29 437.425
O/OREOS (USA 219) 03 Mar 20:02:13 20:06:27 36° 255° (WSW) 20:10:36 437.305
SEEDS 03 Mar 20:14:52 20:18:52 46° 74° (ENE) 20:22:54 437.485
STRAND 1 03 Mar 20:16:01 20:20:38 33° 291° (WNW) 20:25:10 437.568
CANX-2 03 Mar 20:19:44 20:23:55 72° 76° (ENE) 20:28:07 2200.000
FUNcube-1 03 Mar 20:32:26 20:34:08 12° 67° (ENE) 20:36:02 145.935
ZACube-1 03 Mar 20:33:51 20:35:47 13° 67° (ENE) 20:37:56 437.345
CUTE 1.7 + AOD 2 03 Mar 20:38:08 20:42:21 76° 258° (WSW) 20:46:34 437.475
UKube-1 03 Mar 20:39:03 20:41:21 15° 66° (ENE) 20:43:50 .
VERMONT LUNAR 03 Mar 20:40:05 20:43:35 71° 10° (N) 20:47:03 437.305
DELFI C3 03 Mar 20:44:08 20:47:24 25° 71° (ENE) 20:50:46 145.870
GOMX 1 03 Mar 20:50:40 20:55:59 56° 260° (W) 21:01:03 467.674
PHONESAT 2.4 03 Mar 20:51:48 20:55:25 62° 4° (N) 20:59:02 2401.200-2431.200
BRITE-PL 03 Mar 20:51:48 20:57:06 39° 263° (W) 21:02:10 437.365/2234.400
UWE-3 03 Mar 20:53:44 20:57:25 27° 71° (ENE) 21:01:07 435.000/436.395/437.385
PCSat 03 Mar 21:02:33 21:07:55 63° 300° (WNW) 21:13:20 145.827
HO-68 03 Mar 21:07:44 21:14:33 46° 261° (W) 21:21:22 435.675
AAUSAT CUBESAT 2 03 Mar 21:17:57 21:21:53 42° 262° (W) 21:25:50 437.432
Oscar 11 03 Mar 21:18:29 21:22:47 86° 79° (E) 21:27:07 145.826/435.025
CINEMA 3 03 Mar 21:19:51 21:24:39 70° 259° (W) 21:29:14 145.822/145.860
GONETS M04 03 Mar 21:19:56 21:27:48 42° 88° (E) 21:35:49
DOVE 4 03 Mar 21:20:34 21:25:24 39° 262° (W) 21:30:00 437.250
COMPASS 1 03 Mar 21:21:41 21:25:28 33° 263° (W) 21:29:14 437.405
CUBEBUG 2 03 Mar 21:32:48 21:37:21 89° 261° (W) 21:41:46 437.445
DX 1 03 Mar 21:44:41 21:49:04 83° 76° (ENE) 21:53:30 434.975-435.025
50 SAT 03 Mar 21:46:25 21:49:50 28° 72° (ENE) 21:53:17 437.505
SEEDS 03 Mar 21:52:59 21:55:01 13° 270° (W) 21:56:50 437.485
AISAT 03 Mar 21:53:42 21:57:54 40° 72° (ENE) 22:02:08 437.250
CUBEBUG 1 03 Mar 21:54:32 21:57:22 17° 67° (ENE) 22:00:22 437.445
HUMSAT D 03 Mar 22:01:14 22:05:23 65° 76° (ENE) 22:09:31 437.325/437.525
VELOX 1 03 Mar 22:02:30 22:06:49 49° 73° (ENE) 22:11:10 145.980
FUNcube-1 03 Mar 22:05:48 22:10:06 56° 260° (W) 22:14:19 145.935
ZACube-1 03 Mar 22:07:31 22:11:49 53° 260° (W) 22:16:02 437.345
UKube-1 03 Mar 22:12:56 22:17:10 49° 261° (W) 22:21:24 .
RS-15 03 Mar 22:16:00 22:25:26 37° 108° (ESE) 22:35:11 29.354- 29.394
VERMONT LUNAR 03 Mar 22:18:08 22:21:23 37° 206° (SSW) 22:24:37 437.305
DELFI C3 03 Mar 22:19:23 22:22:36 22° 266° (W) 22:25:44 145.870
ESTCUBE 1 03 Mar 22:22:48 22:26:58 38° 72° (ENE) 22:31:13 437.505/2401.250
UWE-3 03 Mar 22:30:16 22:33:57 24° 265° (W) 22:37:30 435.000/436.395/437.385
PHONESAT 2.4 03 Mar 22:30:19 22:33:55 59° 202° (SSW) 22:37:29 2401.200-2431.200
UNISAT 6 03 Mar 22:34:38 22:38:35 35° 98° (E) 22:42:36 437.425
QB50P1 03 Mar 22:40:04 22:43:15 21° 94° (E) 22:46:33 145.935-145.965
QB50P2 03 Mar 22:44:10 22:47:36 24° 95° (E) 22:51:05 145.880/145.840
BUGSAT 1 03 Mar 22:44:28 22:47:06 17° 92° (E) 22:49:51 437.445
PCSat 03 Mar 22:51:12 22:52:34 11° 321° (NW) 22:53:40 145.827
DANDE 03 Mar 22:57:01 23:00:54 17° 93° (E) 23:04:32 436.750
DUCHIFAT 1 03 Mar 22:57:52 23:01:41 33° 97° (E) 23:05:30 145.980
TIGRISAT 03 Mar 22:58:52 23:03:09 66° 101° (E) 23:07:28 435.000
ANTELSAT 03 Mar 23:13:10 23:17:29 82° 284° (WNW) 23:21:51 437.575/2403.000
GONETS M04 03 Mar 23:16:37 23:24:42 40° 287° (WNW) 23:32:40
CUSAT 1 03 Mar 23:18:04 23:23:26 30° 96° (E) 23:27:48 437.405
POPSAT HIP 1 03 Mar 23:19:11 23:23:23 62° 101° (ESE) 23:27:32 437.405
POLYITAN 1 03 Mar 23:19:18 23:23:31 63° 101° (ESE) 23:27:40 437.675
50 SAT 03 Mar 23:21:58 23:24:53 19° 267° (W) 23:27:41 437.505
CUBEBUG 1 03 Mar 23:29:14 23:33:27 41° 262° (W) 23:37:41 437.445
AISAT 03 Mar 23:31:40 23:34:44 17° 268° (W) 23:37:38 437.250
VELOX 1 03 Mar 23:41:14 23:43:44 14° 270° (W) 23:46:01 145.980
NANOSAT C BR1 03 Mar 23:41:52 23:46:05 70° 284° (WNW) 23:50:15 145.865
TISAT 1 03 Mar 23:55:26 23:59:43 84° 77° (ENE) 00:04:02 437.305
SPROUT 03 Mar 23:56:07 00:00:28 87° 257° (WSW) 00:04:49 437.525
ESTCUBE 1 04 Mar 00:00:50 00:04:03 18° 268° (W) 00:07:08 437.505/2401.250
SWISSCUBE 04 Mar 00:09:54 00:13:22 21° 67° (ENE) 00:16:59 437.505
PHONESAT 2.4 04 Mar 00:10:01 00:11:57 14° 215° (SW) 00:13:47 2401.200-2431.200
UNISAT 6 04 Mar 00:12:07 00:15:11 19° 292° (WNW) 00:18:09 437.425
QB50P1 04 Mar 00:15:31 00:19:11 29° 289° (WNW) 00:22:47 145.935-145.965
BEESAT 04 Mar 00:18:03 00:21:43 23° 68° (ENE) 00:25:31 436.000
BUGSAT 1 04 Mar 00:18:58 00:22:45 34° 288° (WNW) 00:26:27 437.445
QB50P2 04 Mar 00:19:57 00:23:29 25° 290° (WNW) 00:26:55 145.880/145.840
SO-50 04 Mar 00:22:02 00:24:35 15° 109° (ESE) 00:27:24 436.795
RS-15 04 Mar 00:26:38 00:37:22 59° 309° (NW) 00:48:15 29.354- 29.394
DUCHIFAT 1 04 Mar 00:34:19 00:37:20 19° 292° (WNW) 00:40:12 145.980
DANDE 04 Mar 00:37:22 00:44:15 63° 280° (W) 00:49:23 436.750
TIGRISAT 04 Mar 00:38:27 00:39:28 11° 295° (WNW) 00:40:13 435.000
ITUPSAT 1 04 Mar 00:45:21 00:49:49 42° 72° (ENE) 00:54:23 437.325
BEESAT 3 04 Mar 00:56:02 00:58:19 15° 44° (NE) 01:00:43 437.485
POPSAT HIP 1 04 Mar 00:57:34 00:58:48 11° 295° (WNW) 00:59:49 437.405
POLYITAN 1 04 Mar 00:57:52 00:58:58 11° 295° (WNW) 00:59:50 437.675
CUSAT 1 04 Mar 01:00:51 01:06:15 30° 283° (WNW) 01:10:28 437.405
BEESAT 2 04 Mar 01:22:25 01:25:39 22° 48° (NE) 01:28:56 435.950
YUBILEINY 04 Mar 01:25:47 01:28:22 12° 56° (NE) 01:31:41 435.215
AIST 2 04 Mar 01:28:43 01:30:09 12° 40° (NE) 01:31:45 435.215
Gurwin Techsat 1B 04 Mar 01:41:34 01:43:42 13° 88° (E) 01:46:09 435.225
KKS-1 04 Mar 01:44:03 01:48:01 33° 71° (ENE) 01:52:03 437.445
SWISSCUBE 04 Mar 01:46:32 01:51:01 39° 262° (W) 01:55:30 437.505
STARS 04 Mar 01:47:47 01:51:14 23° 69° (ENE) 01:54:47 437.465
BEESAT 04 Mar 01:55:03 01:59:25 35° 263° (W) 02:03:46 436.000
Oscar 19 04 Mar 01:57:36 02:02:46 80° 103° (ESE) 02:07:54 437.125/150
ITAMSAT 1 04 Mar 01:59:37 02:03:55 26° 94° (E) 02:08:17 435.822/435.867
SO-50 04 Mar 02:00:12 02:04:42 54° 305° (NW) 02:09:23 436.795
ITUPSAT 1 04 Mar 02:24:35 02:27:58 18° 268° (W) 02:31:12 437.325
BEESAT 3 04 Mar 02:32:45 02:36:50 59° 243° (WSW) 02:40:49 437.485
RS-15 04 Mar 02:45:00 02:52:55 21° 338° (NNW) 03:00:43 29.354- 29.394
BEESAT 2 04 Mar 03:00:09 03:03:56 34° 245° (WSW) 03:07:38 435.950
AIST 2 04 Mar 03:05:10 03:09:27 87° 241° (WSW) 03:13:38 435.215
JUGNU 04 Mar 03:07:57 03:10:09 12° 178° (S) 03:12:21 437.505
MOZHAYETS 4 04 Mar 03:08:00 03:09:46 12° 65° (ENE) 03:11:46
JAS-2 04 Mar 03:12:10 03:15:36 14° 85° (E) 03:19:39 435.910
YUBILEINY 04 Mar 03:18:34 03:27:23 67° 79° (E) 03:36:10 435.215
Gurwin Techsat 1B 04 Mar 03:19:00 03:24:19 72° 285° (WNW) 03:29:36 435.225
KKS-1 04 Mar 03:21:17 03:24:45 21° 266° (W) 03:28:07 437.445
AO-7 04 Mar 03:23:00 03:29:08 24° 92° (E) 03:35:36 29.400- 29.500
STARS 04 Mar 03:23:41 03:27:36 30° 264° (W) 03:31:28 437.465
ITAMSAT 1 04 Mar 03:38:45 03:43:30 35° 290° (WNW) 03:48:09 435.822/435.867
M-CUBED/EXP-1 PRIME 04 Mar 03:39:18 03:42:29 50° 70° (ENE) 03:45:50 437.505
Oscar 19 04 Mar 03:39:24 03:41:32 12° 297° (WNW) 03:43:24 437.125/150
AUBIESAT-1 04 Mar 03:40:03 03:43:12 44° 69° (ENE) 03:46:30 437.475
HORYU 2 04 Mar 03:40:03 03:44:23 50° 100° (E) 03:48:43 437.375
PCSat 04 Mar 04:10:44 04:12:53 12° 41° (NE) 04:15:14 145.827
MOZHAYETS 4 04 Mar 04:42:00 04:46:31 63° 260° (W) 04:51:05
JAS-2 04 Mar 04:54:06 05:01:41 80° 102° (ESE) 05:09:36 435.910
JUGNU 04 Mar 04:57:25 04:58:18 10° 188° (S) 04:59:07 437.505
SRMSAT 04 Mar 05:00:37 05:02:59 12° 180° (S) 05:05:20 437.500
RS-15 04 Mar 05:04:10 05:11:11 18° 14° (NNE) 05:18:36 29.354- 29.394
CUBESAT XI-V 04 Mar 05:09:38 05:12:51 19° 67° (ENE) 05:16:13 437.345
AO-7 04 Mar 05:14:26 05:22:41 70° 291° (WNW) 05:30:52 29.400- 29.500
PRISM 04 Mar 05:15:03 05:18:04 20° 68° (ENE) 05:21:13 437.425
YUBILEINY 04 Mar 05:16:44 05:23:33 24° 277° (W) 05:29:59 435.215
HORYU 2 04 Mar 05:18:07 05:20:41 15° 294° (WNW) 05:23:04 437.375
Cubesat XI-IV 04 Mar 05:38:48 05:42:14 18° 91° (E) 05:45:53 437.490
CUTE-I 04 Mar 05:46:57 05:50:52 21° 92° (E) 05:54:55 437.470
STRAND 1 04 Mar 05:51:28 05:56:02 34° 70° (ENE) 06:00:42 437.568
PCSat 04 Mar 05:51:54 05:57:20 75° 60° (ENE) 06:02:45 145.827
